[[{"header":{"parameterUnit":"m.s-1","parameterCategory":1,"la1":30.2992,"la2":30.254,"lo1":-89.0895,"lo2":-89.0443,"dy":0.0025,"dx":0.0025,"nx":19,"ny":19,"refTime":"2026-05-16T21:00:00:Z","depth":0,"parameterNumber":2,"parameterNumberName":"U-component_of_WINDS"},"data":[0,0,0,-4.2413,-4.2415,-4.2476,-4.2476,-4.2576,-4.2577,0,0,0,0,0,0,0,0,0,0,0,-4.2407,-4.2408,-4.2413,-4.2415,-4.2476,-4.2476,-4.2576,-4.2577,0,0,0,0,0,0,0,0,0,0,0,-4.2406,-4.2408,-4.2409,-4.2415,-4.2476,-4.2476,-4.2575,-4.2522,0,0,0,0,0,0,0,0,0,0,-4.2459,-4.2464,-4.2407,-4.2409,-4.2416,-4.2476,-4.2476,-4.2519,-4.2525,-4.2557,0,-4.2587,0,-4.2584,-4.2585,-4.2585,0,0,0,-4.2407,-4.2459,-4.2465,-4.2409,-4.2417,-4.2476,-4.2446,-4.2522,-4.2529,-4.2565,-4.2588,-4.2591,-4.2585,-4.2586,-4.2586,-4.2794,-4.2795,0,0,-4.2403,-4.2424,-4.246,-4.247,-4.2461,-4.2444,-4.2448,-4.2526,-4.2553,-4.2588,-4.2593,-4.2587,-4.2586,-4.2587,-4.2793,-4.2794,0,0,0,-4.2399,-4.2422,-4.2426,-4.2466,-4.2476,-4.2446,-4.2451,-4.2549,-4.2549,-4.2594,-4.2588,-4.2587,-4.2588,-4.2791,-4.2793,-4.288,0,0,0,-4.2397,-4.242,-4.2425,-4.2438,-4.2475,-4.2513,-4.2473,-4.2543,-4.2551,-4.2588,-4.2587,-4.259,-4.279,-4.2792,-4.2874,-4.2917,0,0,0,-4.2399,-4.242,-4.2433,-4.2439,-4.2466,-4.2511,-4.2515,-4.2545,-4.2548,-4.2585,-4.259,-4.2789,-4.2792,-4.2869,-4.2908,-4.2977,0,0,0,-4.2407,-4.2509,-4.2434,-4.2546,-4.2466,-4.2565,-4.2514,-4.2587,-4.2629,-4.2588,-4.279,-4.2793,-4.2867,-4.2903,-4.2971,-4.3037,-4.3066,0,0,-4.2547,-4.2527,-4.2591,-4.2526,-4.2643,-4.2554,-4.2684,-4.2703,-4.2689,-4.276,-4.2765,-4.2876,-4.2908,-4.2976,-4.3228,-4.3251,0,0,0,-4.2642,-4.2688,-4.2715,-4.2756,-4.2773,-4.2791,-4.2788,-4.2796,-4.2856,-4.2729,-4.2919,-4.2938,-4.2977,-4.3007,-4.3027,-4.3059,-4.2808,-4.2808,-4.2808,-4.2869,-4.2844,-4.2949,-4.2932,-4.2973,-4.297,-4.3001,-4.301,-4.2974,-4.302,-4.304,-4.3196,-4.3232,-4.3247,-4.3281,-4.3074,-4.3075,-4.3075,-4.3075,-4.307,-4.3131,-4.3082,-4.3165,-4.3139,-4.321,-4.3212,-4.3184,-4.3247,-4.3178,-4.3211,-4.3137,-4.3274,-4.3302,-4.3081,-4.308,-4.3079,-4.3079,-4.3078,-4.3215,-4.3239,-4.3247,-4.3304,-4.3352,-4.3333,-4.3395,-4.337,-4.3347,-4.338,-4.3398,-4.3397,-4.3391,-4.3391,-4.3391,-4.3392,-4.3392,-4.3393,-4.3393,-4.336,-4.3366,-4.342,-4.3449,-4.3472,-4.35,-4.35,-4.3523,-4.3542,-4.3519,-4.3519,-4.3478,-4.3292,-4.3244,-4.3401,-4.34,-4.3399,-4.3398,-4.3398,-4.357,-4.3519,-4.3603,-4.3627,-4.3659,-4.3708,-4.3676,-4.3725,-4.3741,-4.3773,-4.3726,-4.3593,-4.357,-4.3554,-4.3514,-4.3731,-4.3731,-4.3731,-4.3731,-4.3691,-4.3677,-4.3758,-4.3797,-4.3834,-4.3814,-4.3912,-4.3914,-4.3908,-4.3917,-4.3882,-4.3829,-4.3814,-4.38,-4.3778,-4.3741,-4.4011,-4.4011,-4.4011,-4.3818,-4.3807,-4.3894,-4.3887,-4.391,-4.3932,-4.4023,-4.4072,-4.4055,-4.4022,-4.3923,-4.3911,-4.3824,-4.3797,-4.3759,-4.3727,-4.3658,0,0]},{"header":{"parameterUnit":"m.s-1","parameterCategory":1,"la1":30.2992,"la2":30.254,"lo1":-89.0895,"lo2":-89.0443,"dy":0.0025,"dx":0.0025,"nx":19,"ny":19,"refTime":"2026-05-16T21:00:00:Z","depth":0,"parameterNumber":3,"parameterNumberName":"V-component_of_WINDS"},"data":[0,0,0,3.7673,3.7675,3.7784,3.7784,3.7903,3.7904,0,0,0,0,0,0,0,0,0,0,0,3.7629,3.763,3.7672,3.7675,3.7784,3.7784,3.7903,3.7904,0,0,0,0,0,0,0,0,0,0,0,3.7629,3.763,3.763,3.7675,3.7784,3.7784,3.7903,3.7828,0,0,0,0,0,0,0,0,0,0,3.7725,3.7675,3.763,3.763,3.7676,3.7784,3.7785,3.7824,3.7832,3.7846,0,3.7856,0,3.7882,3.7911,3.7911,0,0,0,3.7683,3.7668,3.7708,3.763,3.7677,3.7783,3.7737,3.7829,3.7838,3.7856,3.7858,3.7863,3.7884,3.7912,3.7912,3.7968,3.7968,0,0,3.7677,3.7643,3.7701,3.7713,3.7697,3.7733,3.774,3.7835,3.7834,3.7858,3.7866,3.7886,3.7912,3.7913,3.7968,3.7968,0,0,0,3.7654,3.7638,3.7676,3.7708,3.7729,3.7736,3.7744,3.783,3.7845,3.7867,3.7887,3.7913,3.7914,3.7968,3.7968,3.7932,0,0,0,3.7651,3.7625,3.7673,3.7653,3.7727,3.7781,3.7736,3.7838,3.785,3.7887,3.7913,3.7915,3.7968,3.7968,3.7933,3.792,0,0,0,3.7626,3.7623,3.7635,3.7651,3.7697,3.778,3.7801,3.7842,3.7862,3.7911,3.7915,3.7968,3.7968,3.7934,3.7922,3.7926,0,0,0,3.7589,3.76,3.7634,3.7653,3.7696,3.7757,3.7801,3.7848,3.7886,3.7913,3.7968,3.7968,3.7935,3.7924,3.7927,3.7924,3.792,0,0,3.7584,3.7598,3.7612,3.7645,3.7692,3.7743,3.7785,3.785,3.7885,3.7937,3.7939,3.7933,3.7923,3.7926,3.7903,3.7899,0,0,0,3.7599,3.7608,3.7628,3.7664,3.7715,3.7758,3.7822,3.7846,3.7893,3.7906,3.7935,3.793,3.7934,3.7934,3.7931,3.7936,3.7966,3.7966,3.7966,3.7543,3.7588,3.7614,3.7672,3.7705,3.7771,3.7802,3.7846,3.788,3.7886,3.7903,3.7884,3.7882,3.788,3.7885,3.7904,3.7904,3.7903,3.7903,3.7539,3.7561,3.7607,3.7649,3.7696,3.7731,3.7794,3.7817,3.7856,3.7875,3.788,3.7898,3.7875,3.7881,3.7901,3.7901,3.7902,3.7902,3.7902,3.7509,3.7527,3.7557,3.7614,3.7652,3.7709,3.7745,3.7786,3.7824,3.7829,3.7851,3.7852,3.7859,3.7837,3.7837,3.7837,3.7836,3.7836,3.7836,3.7466,3.7501,3.7528,3.7583,3.7612,3.7654,3.7719,3.7748,3.779,3.7817,3.7817,3.785,3.7864,3.7867,3.7836,3.7836,3.7836,3.7836,3.7836,3.7448,3.7459,3.7499,3.7528,3.7597,3.7632,3.7683,3.7738,3.7767,3.7783,3.7815,3.7818,3.7835,3.7838,3.7841,3.7805,3.7805,3.7805,3.7805,3.7424,3.7436,3.7487,3.753,3.7577,3.7627,3.7671,3.7721,3.7774,3.7795,3.7805,3.7812,3.7813,3.783,3.7833,3.7837,3.78,3.78,3.78,3.7416,3.7435,3.7465,3.7519,3.7576,3.7623,3.7665,3.7711,3.7773,3.7801,3.7812,3.7812,3.7824,3.7825,3.7854,3.7858,3.7865,0,0]}]]